Time,TemperatureF,DewpointF,PressureIn,WindDirection,WindDirectionDegrees,WindSpeedMPH,WindSpeedGustMPH,Humidity,HourlyPrecipIn,Conditions,Clouds,dailyrainin,SoftwareType,DateUTC
2013-07-05 00:01:00,75.0,73.0,30.14,SSE,151,0.0,-999.0,92,-99.99,,,-99.99,,2013-07-05 04:01:00,
2013-07-05 00:12:00,75.0,73.0,30.14,SE,145,0.0,-999.0,92,-99.99,,,-99.99,,2013-07-05 04:12:00,
2013-07-05 00:22:00,75.0,73.0,30.14,SE,145,0.0,-999.0,92,-99.99,,,-99.99,,2013-07-05 04:22:00,
2013-07-05 00:33:00,75.0,73.0,30.14,SE,145,0.0,-999.0,92,-99.99,,,-99.99,,2013-07-05 04:33:00,
2013-07-05 00:43:00,74.0,72.0,30.14,SE,145,0.0,-999.0,92,-99.99,,,-99.99,,2013-07-05 04:43:00,
2013-07-05 00:53:00,74.0,72.0,30.14,SE,145,0.0,-999.0,93,-99.99,,,-99.99,,2013-07-05 04:53:00,
2013-07-05 01:01:00,74.0,72.0,30.14,SE,145,0.0,-999.0,93,-99.99,,,-99.99,,2013-07-05 05:01:00,
2013-07-05 01:12:00,74.0,72.0,30.14,SE,145,0.0,-999.0,92,-99.99,,,-99.99,,2013-07-05 05:12:00,
2013-07-05 01:22:00,74.0,72.0,30.14,SE,145,0.0,-999.0,92,-99.99,,,-99.99,,2013-07-05 05:22:00,
2013-07-05 01:33:00,74.0,72.0,30.14,SE,145,0.0,-999.0,92,-99.99,,,-99.99,,2013-07-05 05:33:00,
2013-07-05 01:43:00,74.0,72.0,30.14,SE,145,0.0,-999.0,92,-99.99,,,-99.99,,2013-07-05 05:43:00,
2013-07-05 01:52:00,74.0,72.0,30.14,SE,145,0.0,-999.0,92,-99.99,,,-99.99,,2013-07-05 05:52:00,
2013-07-05 02:02:00,74.0,72.0,30.14,SE,144,0.0,-999.0,92,-99.99,,,-99.99,,2013-07-05 06:02:00,
2013-07-05 02:13:00,74.0,72.0,30.14,SE,144,0.0,-999.0,92,-99.99,,,-99.99,,2013-07-05 06:13:00,
2013-07-05 02:23:00,74.0,72.0,30.14,SE,144,0.0,-999.0,92,-99.99,,,-99.99,,2013-07-05 06:23:00,
2013-07-05 02:34:00,74.0,72.0,30.14,SE,144,0.0,-999.0,92,-99.99,,,-99.99,,2013-07-05 06:34:00,
2013-07-05 02:44:00,74.0,72.0,30.14,SE,144,0.0,-999.0,93,-99.99,,,-99.99,,2013-07-05 06:44:00,
2013-07-05 02:53:00,74.0,72.0,30.14,SE,144,0.0,-999.0,92,-99.99,,,-99.99,,2013-07-05 06:53:00,
2013-07-05 03:02:00,74.0,72.0,30.14,SE,144,0.0,-999.0,92,-99.99,,,-99.99,,2013-07-05 07:02:00,
2013-07-05 03:12:00,74.0,72.0,30.14,SE,144,0.0,-999.0,92,-99.99,,,-99.99,,2013-07-05 07:12:00,
2013-07-05 03:23:00,74.0,72.0,30.14,SE,144,0.0,-999.0,92,-99.99,,,-99.99,,2013-07-05 07:23:00,
2013-07-05 03:34:00,73.0,71.0,30.14,SE,144,0.0,-999.0,92,-99.99,,,-99.99,,2013-07-05 07:34:00,
2013-07-05 03:43:00,73.0,71.0,30.14,SE,144,0.0,-999.0,92,-99.99,,,-99.99,,2013-07-05 07:43:00,
2013-07-05 03:53:00,73.0,71.0,30.14,SE,144,0.0,-999.0,93,-99.99,,,-99.99,,2013-07-05 07:53:00,
2013-07-05 04:03:00,73.0,71.0,30.14,SE,144,0.0,-999.0,93,-99.99,,,-99.99,,2013-07-05 08:03:00,
2013-07-05 04:12:00,73.0,71.0,30.14,SE,144,0.0,-999.0,93,-99.99,,,-99.99,,2013-07-05 08:12:00,
2013-07-05 04:23:00,73.0,71.0,30.14,SE,144,0.0,-999.0,93,-99.99,,,-99.99,,2013-07-05 08:23:00,
2013-07-05 04:33:00,73.0,71.0,30.14,SE,144,0.0,-999.0,93,-99.99,,,-99.99,,2013-07-05 08:33:00,
2013-07-05 04:44:00,73.0,71.0,30.14,SE,144,0.0,-999.0,93,-99.99,,,-99.99,,2013-07-05 08:44:00,
2013-07-05 04:55:00,73.0,71.0,30.14,SE,144,0.0,-999.0,93,-99.99,,,-99.99,,2013-07-05 08:55:00,
2013-07-05 05:08:00,73.0,71.0,30.14,SE,144,0.0,-999.0,93,-99.99,,,-99.99,,2013-07-05 09:08:00,
2013-07-05 05:16:00,73.0,71.0,30.14,SE,144,0.0,-999.0,93,-99.99,,,-99.99,,2013-07-05 09:16:00,
2013-07-05 05:28:00,73.0,71.0,30.15,SE,144,0.0,-999.0,93,-99.99,,,-99.99,,2013-07-05 09:28:00,
2013-07-05 05:37:00,73.0,71.0,30.15,SE,144,0.0,-999.0,93,-99.99,,,-99.99,,2013-07-05 09:37:00,
2013-07-05 05:48:00,73.0,71.0,30.15,SE,144,0.0,-999.0,93,-99.99,,,-99.99,,2013-07-05 09:48:00,
2013-07-05 05:55:00,72.0,70.0,30.15,SE,144,0.0,-999.0,93,-99.99,,,-99.99,,2013-07-05 09:55:00,
2013-07-05 06:08:00,72.0,70.0,30.16,SE,144,0.0,-999.0,93,-99.99,,,-99.99,,2013-07-05 10:08:00,
2013-07-05 06:19:00,72.0,70.0,30.16,SE,144,0.0,-999.0,93,-99.99,,,-99.99,,2013-07-05 10:19:00,
2013-07-05 06:37:00,72.0,70.0,30.16,SE,144,0.0,-999.0,93,-99.99,,,-99.99,,2013-07-05 10:37:00,
2013-07-05 06:47:00,72.0,70.0,30.16,SE,144,0.0,-999.0,93,-99.99,,,-99.99,,2013-07-05 10:47:00,
2013-07-05 06:56:00,72.0,70.0,30.16,SE,144,0.0,-999.0,93,-99.99,,,-99.99,,2013-07-05 10:56:00,
2013-07-05 07:10:00,72.0,70.0,30.16,SE,144,0.0,-999.0,93,-99.99,,,-99.99,,2013-07-05 11:10:00,
2013-07-05 07:18:00,72.0,70.0,30.16,SE,144,0.0,-999.0,93,-99.99,,,-99.99,,2013-07-05 11:18:00,
2013-07-05 07:25:00,73.0,71.0,30.16,SE,144,0.0,-999.0,94,-99.99,,,-99.99,,2013-07-05 11:25:00,
2013-07-05 07:37:00,73.0,71.0,30.16,SE,144,0.0,-999.0,94,-99.99,,,-99.99,,2013-07-05 11:37:00,
2013-07-05 07:48:00,73.0,71.0,30.16,SE,144,0.0,-999.0,94,-99.99,,,-99.99,,2013-07-05 11:48:00,
2013-07-05 08:10:00,74.0,72.0,30.16,SE,144,0.0,-999.0,93,-99.99,,,-99.99,,2013-07-05 12:10:00,
2013-07-05 08:16:00,75.0,73.0,30.16,SE,144,0.0,-999.0,93,-99.99,,,-99.99,,2013-07-05 12:16:00,
2013-07-05 08:25:00,75.0,73.0,30.16,SE,144,0.0,-999.0,92,-99.99,,,-99.99,,2013-07-05 12:25:00,
2013-07-05 08:37:00,75.0,73.0,30.16,SE,144,0.0,-999.0,92,-99.99,,,-99.99,,2013-07-05 12:37:00,
2013-07-05 08:57:00,77.0,74.0,30.16,SE,143,0.0,-999.0,90,-99.99,,,-99.99,,2013-07-05 12:57:00,
2013-07-05 09:07:00,77.0,74.0,30.16,SE,143,0.0,-999.0,89,-99.99,,,-99.99,,2013-07-05 13:07:00,
2013-07-05 09:25:00,78.0,74.0,30.16,SE,143,0.0,-999.0,87,-99.99,,,-99.99,,2013-07-05 13:25:00,
2013-07-05 09:39:00,79.0,75.0,30.16,SE,145,0.0,-999.0,87,-99.99,,,-99.99,,2013-07-05 13:39:00,
2013-07-05 09:56:00,80.0,75.0,30.15,SE,145,0.0,-999.0,85,-99.99,,,-99.99,,2013-07-05 13:56:00,
2013-07-05 10:08:00,80.0,75.0,30.15,SE,145,0.0,-999.0,84,-99.99,,,-99.99,,2013-07-05 14:08:00,
2013-07-05 10:16:00,81.0,76.0,30.15,SE,145,0.0,-999.0,85,-99.99,,,-99.99,,2013-07-05 14:16:00,
2013-07-05 10:28:00,81.0,76.0,30.15,SE,145,0.0,-999.0,84,-99.99,,,-99.99,,2013-07-05 14:28:00,
2013-07-05 10:38:00,81.0,75.0,30.15,SE,145,1.0,-999.0,82,-99.99,,,-99.99,,2013-07-05 14:38:00,
2013-07-05 10:46:00,82.0,76.0,30.15,SE,144,0.0,-999.0,83,-99.99,,,-99.99,,2013-07-05 14:46:00,
2013-07-05 10:55:00,82.0,75.0,30.15,NW,313,1.0,-999.0,79,-99.99,,,-99.99,,2013-07-05 14:55:00,
2013-07-05 11:07:00,83.0,76.0,30.15,NW,315,1.0,-999.0,79,-99.99,,,-99.99,,2013-07-05 15:07:00,
2013-07-05 11:17:00,83.0,76.0,30.14,WNW,302,1.0,-999.0,79,-99.99,,,-99.99,,2013-07-05 15:17:00,
2013-07-05 11:25:00,84.0,76.0,30.14,WNW,299,0.0,-999.0,78,-99.99,,,-99.99,,2013-07-05 15:25:00,
2013-07-05 11:34:00,85.0,77.0,30.14,WNW,299,0.0,-999.0,76,-99.99,,,-99.99,,2013-07-05 15:34:00,
2013-07-05 11:43:00,85.0,76.0,30.13,WNW,298,1.0,-999.0,74,-99.99,,,-99.99,,2013-07-05 15:43:00,
2013-07-05 11:53:00,86.0,77.0,30.13,West,279,1.0,-999.0,74,-99.99,,,-99.99,,2013-07-05 15:53:00,
2013-07-05 12:33:00,91.0,78.0,30.13,West,278,1.0,-999.0,67,-99.99,,,-99.99,,2013-07-05 16:33:00,
2013-07-05 12:44:00,91.0,78.0,30.12,WSW,250,1.0,-999.0,65,-99.99,,,-99.99,,2013-07-05 16:44:00,
2013-07-05 12:53:00,90.0,78.0,30.12,WSW,250,0.0,-999.0,68,-99.99,,,-99.99,,2013-07-05 16:53:00,
2013-07-05 13:02:00,90.0,78.0,30.11,WSW,251,1.0,-999.0,67,-99.99,,,-99.99,,2013-07-05 17:02:00,
2013-07-05 13:12:00,90.0,76.0,30.11,WSW,251,1.0,-999.0,63,-99.99,,,-99.99,,2013-07-05 17:12:00,
2013-07-05 13:53:00,92.0,76.0,30.11,South,187,1.0,-999.0,59,-99.99,,,-99.99,,2013-07-05 17:53:00,
2013-07-05 14:11:00,93.0,76.0,30.11,South,187,1.0,-999.0,58,-99.99,,,-99.99,,2013-07-05 18:11:00,
2013-07-05 14:22:00,93.0,76.0,30.10,West,259,1.0,-999.0,58,-99.99,,,-99.99,,2013-07-05 18:22:00,
2013-07-05 14:33:00,93.0,77.0,30.10,SE,145,1.0,-999.0,60,-99.99,,,-99.99,,2013-07-05 18:33:00,
2013-07-05 14:43:00,93.0,76.0,30.10,SE,146,1.0,-999.0,58,-99.99,,,-99.99,,2013-07-05 18:43:00,
2013-07-05 14:53:00,93.0,79.0,30.10,SE,145,1.0,-999.0,63,-99.99,,,-99.99,,2013-07-05 18:53:00,
2013-07-05 15:02:00,93.0,77.0,30.09,SSE,147,2.0,-999.0,59,-99.99,,,-99.99,,2013-07-05 19:02:00,
2013-07-05 15:12:00,94.0,76.0,30.09,NW,312,1.0,-999.0,57,-99.99,,,-99.99,,2013-07-05 19:12:00,
2013-07-05 15:34:00,94.0,77.0,30.08,NNW,329,2.0,-999.0,58,-99.99,,,-99.99,,2013-07-05 19:34:00,
2013-07-05 15:43:00,94.0,77.0,30.08,NNW,328,1.0,-999.0,58,-99.99,,,-99.99,,2013-07-05 19:43:00,
2013-07-05 15:53:00,94.0,77.0,30.07,NW,315,1.0,-999.0,58,-99.99,,,-99.99,,2013-07-05 19:53:00,
2013-07-05 16:02:00,95.0,77.0,30.07,WNW,303,1.0,-999.0,57,-99.99,,,-99.99,,2013-07-05 20:02:00,
2013-07-05 16:11:00,94.0,77.0,30.07,WSW,244,1.0,-999.0,59,-99.99,,,-99.99,,2013-07-05 20:11:00,
2013-07-05 16:33:00,91.0,77.0,30.06,SSE,148,1.0,-999.0,63,-99.99,,,-99.99,,2013-07-05 20:33:00,
2013-07-05 16:43:00,90.0,75.0,30.06,NW,309,1.0,-999.0,62,-99.99,,,-99.99,,2013-07-05 20:43:00,
2013-07-05 16:53:00,90.0,76.0,30.06,WNW,299,1.0,-999.0,63,-99.99,,,-99.99,,2013-07-05 20:53:00,
2013-07-05 17:01:00,90.0,77.0,30.06,WNW,298,0.0,-999.0,66,-99.99,,,-99.99,,2013-07-05 21:01:00,
2013-07-05 17:12:00,89.0,77.0,30.06,SSE,166,1.0,-999.0,67,-99.99,,,-99.99,,2013-07-05 21:12:00,
2013-07-05 17:22:00,89.0,77.0,30.06,SSE,166,0.0,-999.0,67,-99.99,,,-99.99,,2013-07-05 21:22:00,
2013-07-05 17:34:00,88.0,76.0,30.06,SSE,166,0.0,-999.0,68,-99.99,,,-99.99,,2013-07-05 21:34:00,
2013-07-05 17:43:00,87.0,75.0,30.06,SSE,166,0.0,-999.0,68,-99.99,,,-99.99,,2013-07-05 21:43:00,
2013-07-05 17:53:00,87.0,76.0,30.06,SSE,166,0.0,-999.0,70,-99.99,,,-99.99,,2013-07-05 21:53:00,
2013-07-05 18:02:00,87.0,76.0,30.06,SE,146,1.0,-999.0,70,-99.99,,,-99.99,,2013-07-05 22:02:00,
2013-07-05 18:12:00,87.0,77.0,30.06,SSE,147,0.0,-999.0,72,-99.99,,,-99.99,,2013-07-05 22:12:00,
2013-07-05 18:34:00,87.0,78.0,30.06,SE,146,0.0,-999.0,76,-99.99,,,-99.99,,2013-07-05 22:34:00,
2013-07-05 18:43:00,86.0,78.0,30.05,SE,146,0.0,-999.0,76,-99.99,,,-99.99,,2013-07-05 22:43:00,
2013-07-05 18:53:00,85.0,77.0,30.05,SE,146,0.0,-999.0,77,-99.99,,,-99.99,,2013-07-05 22:53:00,
2013-07-05 19:02:00,85.0,77.0,30.05,SE,146,0.0,-999.0,78,-99.99,,,-99.99,,2013-07-05 23:02:00,
2013-07-05 19:11:00,84.0,76.0,30.05,SE,146,0.0,-999.0,78,-99.99,,,-99.99,,2013-07-05 23:11:00,
2013-07-05 19:23:00,84.0,76.0,30.05,SE,146,0.0,-999.0,78,-99.99,,,-99.99,,2013-07-05 23:23:00,
2013-07-05 19:32:00,83.0,75.0,30.05,SE,146,0.0,-999.0,77,-99.99,,,-99.99,,2013-07-05 23:32:00,
2013-07-05 19:43:00,83.0,75.0,30.05,SE,146,0.0,-999.0,78,-99.99,,,-99.99,,2013-07-05 23:43:00,
2013-07-05 19:53:00,82.0,75.0,30.05,SE,146,0.0,-999.0,80,-99.99,,,-99.99,,2013-07-05 23:53:00,
2013-07-05 20:02:00,82.0,76.0,30.04,SE,146,0.0,-999.0,81,-99.99,,,-99.99,,2013-07-06 00:02:00,
2013-07-05 20:12:00,82.0,76.0,30.05,SE,146,0.0,-999.0,82,-99.99,,,-99.99,,2013-07-06 00:12:00,
2013-07-05 20:22:00,81.0,75.0,30.05,SE,146,0.0,-999.0,82,-99.99,,,-99.99,,2013-07-06 00:22:00,
2013-07-05 20:33:00,81.0,76.0,30.05,SE,146,0.0,-999.0,84,-99.99,,,-99.99,,2013-07-06 00:33:00,
2013-07-05 20:42:00,81.0,75.0,30.05,SE,146,0.0,-999.0,83,-99.99,,,-99.99,,2013-07-06 00:42:00,
2013-07-05 20:53:00,81.0,76.0,30.05,SE,146,0.0,-999.0,84,-99.99,,,-99.99,,2013-07-06 00:53:00,
2013-07-05 21:02:00,81.0,75.0,30.05,SE,146,0.0,-999.0,83,-99.99,,,-99.99,,2013-07-06 01:02:00,
2013-07-05 21:12:00,80.0,75.0,30.05,SE,146,0.0,-999.0,84,-99.99,,,-99.99,,2013-07-06 01:12:00,
2013-07-05 21:22:00,80.0,75.0,30.05,SE,146,0.0,-999.0,84,-99.99,,,-99.99,,2013-07-06 01:22:00,
2013-07-05 21:43:00,80.0,75.0,30.06,SE,146,0.0,-999.0,84,-99.99,,,-99.99,,2013-07-06 01:43:00,
2013-07-05 21:53:00,80.0,75.0,30.06,SE,146,0.0,-999.0,84,-99.99,,,-99.99,,2013-07-06 01:53:00,
2013-07-05 22:02:00,79.0,74.0,30.07,SE,146,0.0,-999.0,85,-99.99,,,-99.99,,2013-07-06 02:02:00,
2013-07-05 22:12:00,79.0,74.0,30.08,SE,146,0.0,-999.0,86,-99.99,,,-99.99,,2013-07-06 02:12:00,
2013-07-05 22:34:00,78.0,74.0,30.07,SE,146,0.0,-999.0,87,-99.99,,,-99.99,,2013-07-06 02:34:00,
2013-07-05 22:43:00,78.0,74.0,30.06,SE,146,0.0,-999.0,87,-99.99,,,-99.99,,2013-07-06 02:43:00,
2013-07-05 22:53:00,78.0,74.0,30.06,SE,146,0.0,-999.0,87,-99.99,,,-99.99,,2013-07-06 02:53:00,
2013-07-05 23:02:00,78.0,74.0,30.06,SE,146,0.0,-999.0,87,-99.99,,,-99.99,,2013-07-06 03:02:00,
2013-07-05 23:22:00,77.0,73.0,30.06,SE,146,0.0,-999.0,87,-99.99,,,-99.99,,2013-07-06 03:22:00,
2013-07-05 23:34:00,77.0,73.0,30.06,SE,146,0.0,-999.0,87,-99.99,,,-99.99,,2013-07-06 03:34:00,
2013-07-05 23:43:00,77.0,73.0,30.07,SE,146,0.0,-999.0,88,-99.99,,,-99.99,,2013-07-06 03:43:00,
2013-07-05 23:53:00,77.0,73.0,30.06,SE,146,0.0,-999.0,88,-99.99,,,-99.99,,2013-07-06 03:53:00,